TimeEST,TemperatureF,Dew PointF,Humidity,Sea Level PressureIn,VisibilityMPH,Wind Direction,Wind SpeedMPH,Gust SpeedMPH,PrecipitationIn,Events,Conditions,WindDirDegrees,DateUTC
12:15 AM,42.8,33.8,70,30.17,10.0,South,15.0,-,N/A,,Scattered Clouds,190,2013-11-09 05:15:00
12:34 AM,42.8,35.6,76,30.18,10.0,South,13.8,-,N/A,,Scattered Clouds,190,2013-11-09 05:34:00
12:54 AM,42.8,35.6,76,30.17,10.0,South,12.7,-,N/A,,Clear,190,2013-11-09 05:54:00
1:14 AM,42.8,35.6,76,30.17,10.0,South,15.0,-,N/A,,Clear,190,2013-11-09 06:14:00
1:34 AM,42.8,33.8,70,30.15,10.0,South,12.7,-,N/A,,Scattered Clouds,190,2013-11-09 06:34:00
1:54 AM,42.8,35.6,76,30.15,10.0,South,15.0,-,N/A,,Clear,180,2013-11-09 06:54:00
2:14 AM,42.8,35.6,76,30.14,10.0,South,12.7,-,N/A,,Clear,180,2013-11-09 07:14:00
2:34 AM,42.8,35.6,76,30.13,10.0,South,15.0,-,N/A,,Clear,180,2013-11-09 07:34:00
2:54 AM,44.6,35.6,71,30.12,10.0,South,17.3,-,N/A,,Clear,180,2013-11-09 07:54:00
3:14 AM,42.8,35.6,76,30.12,10.0,South,16.1,-,N/A,,Clear,190,2013-11-09 08:14:00
3:34 AM,44.6,35.6,71,30.11,10.0,South,16.1,-,N/A,,Clear,190,2013-11-09 08:34:00
3:54 AM,44.6,35.6,71,30.09,10.0,South,18.4,-,N/A,,Clear,180,2013-11-09 08:54:00
4:14 AM,44.6,35.6,71,30.08,10.0,South,17.3,-,N/A,,Clear,180,2013-11-09 09:14:00
4:34 AM,44.6,33.8,66,30.07,10.0,South,19.6,24.2,N/A,,Clear,180,2013-11-09 09:34:00
4:54 AM,44.6,35.6,71,30.06,10.0,South,19.6,-,N/A,,Clear,180,2013-11-09 09:54:00
5:14 AM,44.6,33.8,66,30.05,10.0,South,18.4,24.2,N/A,,Clear,180,2013-11-09 10:14:00
5:34 AM,44.6,33.8,66,30.05,10.0,South,23.0,26.5,N/A,,Scattered Clouds,190,2013-11-09 10:34:00
5:54 AM,44.6,33.8,66,30.03,10.0,South,19.6,26.5,N/A,,Mostly Cloudy,180,2013-11-09 10:54:00
6:14 AM,44.6,33.8,66,30.03,10.0,South,23.0,-,N/A,,Scattered Clouds,180,2013-11-09 11:14:00
6:34 AM,44.6,33.8,66,30.01,10.0,South,21.9,28.8,N/A,,Scattered Clouds,190,2013-11-09 11:34:00
6:54 AM,44.6,33.8,66,30.00,10.0,South,24.2,31.1,N/A,,Clear,190,2013-11-09 11:54:00
7:14 AM,44.6,33.8,66,29.99,10.0,SSW,24.2,32.2,N/A,,Clear,200,2013-11-09 12:14:00
7:34 AM,44.6,33.8,66,29.99,10.0,SSW,17.3,26.5,N/A,,Clear,200,2013-11-09 12:34:00
7:54 AM,44.6,33.8,66,29.99,10.0,SSW,18.4,26.5,N/A,,Clear,200,2013-11-09 12:54:00
8:14 AM,44.6,33.8,66,29.98,10.0,SSW,23.0,29.9,N/A,,Clear,200,2013-11-09 13:14:00
8:34 AM,44.6,33.8,66,29.97,10.0,SSW,21.9,27.6,N/A,,Clear,200,2013-11-09 13:34:00
8:54 AM,44.6,33.8,66,29.96,10.0,SSW,18.4,27.6,N/A,,Clear,200,2013-11-09 13:54:00
9:14 AM,46.4,35.6,66,29.95,10.0,SSW,18.4,25.3,N/A,,Clear,200,2013-11-09 14:14:00
9:34 AM,46.4,33.8,62,29.93,10.0,South,19.6,25.3,N/A,,Mostly Cloudy,190,2013-11-09 14:34:00
9:54 AM,48.2,33.8,58,29.92,10.0,SSW,17.3,26.5,N/A,,Scattered Clouds,210,2013-11-09 14:54:00
10:14 AM,50.0,32.0,50,29.91,10.0,SSW,18.4,26.5,N/A,,Clear,200,2013-11-09 15:14:00
10:34 AM,51.8,32.0,47,29.89,10.0,SSW,18.4,24.2,N/A,,Clear,210,2013-11-09 15:34:00
10:54 AM,51.8,33.8,50,29.88,10.0,SSW,16.1,21.9,N/A,,Clear,210,2013-11-09 15:54:00
11:14 AM,53.6,33.8,47,29.87,10.0,SW,17.3,26.5,N/A,,Clear,220,2013-11-09 16:14:00
11:34 AM,53.6,33.8,47,29.86,10.0,SW,17.3,31.1,N/A,,Clear,220,2013-11-09 16:34:00
11:54 AM,53.6,35.6,51,29.85,10.0,SW,15.0,29.9,N/A,,Clear,230,2013-11-09 16:54:00
12:14 PM,53.6,35.6,51,29.83,10.0,SW,20.7,31.1,N/A,,Clear,220,2013-11-09 17:14:00
12:34 PM,55.4,35.6,47,29.83,10.0,SW,21.9,31.1,N/A,,Clear,220,2013-11-09 17:34:00
12:54 PM,55.4,35.6,47,29.82,10.0,WSW,13.8,26.5,N/A,,Clear,240,2013-11-09 17:54:00
1:14 PM,55.4,35.6,47,29.81,10.0,SW,20.7,32.2,N/A,,Clear,230,2013-11-09 18:14:00
1:34 PM,55.4,37.4,51,29.81,10.0,SW,13.8,31.1,N/A,,Scattered Clouds,230,2013-11-09 18:34:00
1:54 PM,55.4,37.4,51,29.81,10.0,SW,17.3,29.9,N/A,,Overcast,230,2013-11-09 18:54:00
2:14 PM,57.2,37.4,48,29.81,10.0,SW,17.3,24.2,N/A,,Overcast,230,2013-11-09 19:14:00
2:34 PM,57.2,39.2,51,29.80,10.0,WSW,15.0,24.2,N/A,,Overcast,240,2013-11-09 19:34:00
2:54 PM,55.4,39.2,54,29.80,10.0,WSW,16.1,26.5,N/A,,Overcast,240,2013-11-09 19:54:00
3:14 PM,57.2,39.2,51,29.80,10.0,WSW,13.8,27.6,N/A,,Overcast,240,2013-11-09 20:14:00
3:34 PM,57.2,39.2,51,29.81,10.0,WSW,17.3,27.6,N/A,,Overcast,240,2013-11-09 20:34:00
3:54 PM,57.2,39.2,51,29.81,10.0,WSW,11.5,25.3,N/A,,Overcast,240,2013-11-09 20:54:00
4:14 PM,57.2,39.2,51,29.81,10.0,SW,11.5,23.0,N/A,,Mostly Cloudy,230,2013-11-09 21:14:00
4:34 PM,57.2,39.2,51,29.82,10.0,WSW,13.8,23.0,N/A,,Scattered Clouds,240,2013-11-09 21:34:00
4:54 PM,57.2,39.2,51,29.82,10.0,WSW,15.0,27.6,N/A,,Mostly Cloudy,250,2013-11-09 21:54:00
5:14 PM,57.2,39.2,51,29.84,10.0,WSW,12.7,20.7,N/A,,Overcast,250,2013-11-09 22:14:00
5:34 PM,57.2,39.2,51,29.85,10.0,West,12.7,23.0,N/A,,Overcast,260,2013-11-09 22:34:00
5:54 PM,55.4,39.2,54,29.86,10.0,West,13.8,17.3,N/A,,Overcast,270,2013-11-09 22:54:00
6:14 PM,55.4,37.4,51,29.86,10.0,West,11.5,24.2,N/A,,Overcast,270,2013-11-09 23:14:00
6:34 PM,55.4,37.4,51,29.87,10.0,West,12.7,16.1,N/A,,Overcast,260,2013-11-09 23:34:00
6:54 PM,55.4,37.4,51,29.87,10.0,WSW,8.1,-,N/A,,Overcast,250,2013-11-09 23:54:00
7:14 PM,55.4,37.4,51,29.87,10.0,West,9.2,-,N/A,,Overcast,270,2013-11-10 00:14:00
7:34 PM,55.4,37.4,51,29.87,10.0,WSW,11.5,18.4,N/A,,Overcast,250,2013-11-10 00:34:00
7:54 PM,55.4,37.4,51,29.87,10.0,WSW,10.4,-,N/A,,Overcast,250,2013-11-10 00:54:00
8:14 PM,55.4,37.4,51,29.87,10.0,West,9.2,-,N/A,,Overcast,260,2013-11-10 01:14:00
8:34 PM,55.4,37.4,51,29.87,10.0,WSW,10.4,19.6,N/A,,Overcast,250,2013-11-10 01:34:00
8:54 PM,53.6,37.4,54,29.87,10.0,WSW,15.0,21.9,N/A,,Mostly Cloudy,250,2013-11-10 01:54:00
9:14 PM,53.6,37.4,54,29.87,10.0,West,13.8,20.7,N/A,,Mostly Cloudy,260,2013-11-10 02:14:00
9:34 PM,53.6,37.4,54,29.87,10.0,WSW,8.1,-,N/A,,Mostly Cloudy,250,2013-11-10 02:34:00
9:54 PM,53.6,39.2,58,29.88,10.0,West,11.5,-,N/A,,Scattered Clouds,270,2013-11-10 02:54:00
10:14 PM,53.6,37.4,54,29.89,10.0,West,12.7,25.3,N/A,,Scattered Clouds,270,2013-11-10 03:14:00
10:34 PM,51.8,37.4,58,29.89,10.0,West,9.2,-,N/A,,Scattered Clouds,280,2013-11-10 03:34:00
10:54 PM,51.8,37.4,58,29.89,10.0,West,10.4,-,N/A,,Clear,280,2013-11-10 03:54:00
11:14 PM,50.0,37.4,62,29.88,10.0,West,9.2,18.4,N/A,,Clear,270,2013-11-10 04:14:00
11:34 PM,50.0,35.6,58,29.88,10.0,West,8.1,-,N/A,,Clear,270,2013-11-10 04:34:00
11:54 PM,48.2,35.6,62,29.89,10.0,WSW,8.1,-,N/A,,Clear,250,2013-11-10 04:54:00